{"data":{"norad_id":61202,"epoch":"2026-09-20T08:45:14.577984Z","epoch_age_seconds":203699,"freshness":"STALE","line1":"1 61202U 24171C   26263.36475206 -.00000072  00000+0  42546-5 0  9993","line2":"2 61202  53.1580 296.6602 0000609  78.9596 281.1490 15.69708000114978","mean_motion":15.69708,"eccentricity":6.09e-5,"inclination_deg":53.158,"raan_deg":296.6602,"arg_perigee_deg":78.9596,"mean_anomaly_deg":281.149,"bstar":4.2546e-6,"rev_number":11497,"period_min":91.736807100429,"perigee_km":359.32213740935,"apogee_km":360.14280991124,"semimajor_km":6737.8694736603,"source":"CELESTRAK","updated_at":"2026-09-22T09:00:49.338606Z"}}